Regional Weather Roundup
Issued by NWS

Home | Current Version | Previous Version | Graphics & Text | Print | Product List | Glossary On
Versions: 1 2 3 4 5 6 7 8 9 10 11 12 13 14 15 16 17 18 19 20 21 22 23 24 25 26 27 28 29 30 31 32 33 34 35 36 37 38 39 40 41 42 43 44 45 46 47 48 49 50
000
ASUS43 KLOT 051612
RWRIL

ILLINOIS REGIONAL WEATHER ROUNDUP
NATIONAL WEATHER SERVICE CHICAGO/ROMEOVILLE IL
1000 AM CST MON DEC 05 2016

NOTE: "FAIR" INDICATES FEW OR NO CLOUDS BELOW 12,000 FEET WITH NO
SIGNIFICANT WEATHER AND/OR OBSTRUCTIONS TO VISIBILITY.

* THESE STATIONS ARE NOT UNDER NWS QUALITY CONTROL. THEY ALSO MAY NOT
  REPORT WEATHER SUCH AS PRECIPITATION OR FOG.

ILZ001-002-007-009-015-016-024-051700-
NORTHWEST ILLINOIS

CITY           SKY/WX    TMP DP  RH WIND       PRES   REMARKS
MOLINE         FOG       33  30  88 SE9       29.98S VSB 1   WCI  25
STERLING*      MIX PCPN  31  30  96 VRB6      30.01S VSB 3/4 WCI  25
SAVANNA*       FOG       32  31  98 S14       29.98S VSB 3/4 WCI  22
$$

ILZ003-004-008-010-011-017-018-051700-
NORTH CENTRAL ILLINOIS

CITY           SKY/WX    TMP DP  RH WIND       PRES   REMARKS
ROCKFORD       FOG       31  30  96 S14       30.02R VSB 1/2 WCI  21
FREEPORT*      FOG       31  30  99 S12       30.00R VSB 1/4 WCI  21
ROCHELLE*      FOG       30  30 100 S13       30.02R VSB 1/4 WCI  20
DE KALB*       MIX PCPN  31  31  99 S14       30.02R VSB<1/4 WCI  21
$$

ILZ005-006-012>014-019>023-051700-
NORTHEAST ILLINOIS

CITY           SKY/WX    TMP DP  RH WIND       PRES   REMARKS
CHICAGO-OHARE  CLOUDY    32  30  92 S13       30.03R FOG     WCI  22
CHICAGO-MIDWAY CLOUDY    33  30  88 S10       30.05R FOG     WCI  25
AURORA         FOG       32  31  96 S9        30.04R VSB 3/4 WCI  24
LANSING*       CLOUDY    32  32  99 S9        30.07R WCI  24
JOLIET*        CLOUDY    33  32  96 S10       30.06R FOG     WCI  25
WAUKEGAN       CLOUDY    32  31  96 SW8       30.01R FOG     WCI  25
DUPAGE AIRPORT CLOUDY    32  29  88 S13       30.03R FOG     WCI  22
KANKAKEE*      CLOUDY    32  31  93 S8        30.08R WCI  25
WHEELING       CLOUDY    33  31  92 S8        30.04R FOG     WCI  26
MORRIS*        CLOUDY    32  31  95 S13       30.05R WCI  22
ROMEOVILLE*    CLOUDY    32  32 100 S12       30.05R FOG     WCI  23
NORTHERLY ISL    N/A     33  31  92 S12         N/A  WCI  24
$$

LMZ740>746-051700-
SOUTHERN LAKE MICHIGAN

STATION/POSITION SKY/WX   TEMP    WIND        PRES    VSBY  WAVE
                          AIR SEA DIR/SP/G                  HT/PER
                          (F)     (DEG/KT/KT) (MB)    (MI)  (FT/S)
HARRISON CRIB              34     210/ 14/ 15   N/A
BURNHAM HARBOR             33     190/  9/ 11   N/A
CALUMET HARBOR             33     190/  7/ 10 1016.9R
BURNS HARBOR               33     220/  9/ 12 1018.3R
$$

ILZ025>027-034>036-040-047-049-050-058-095>099-051700-
WEST-CENTRAL ILLINOIS

CITY           SKY/WX    TMP DP  RH WIND       PRES   REMARKS
QUINCY         FOG       33  33 100 S8        30.01R VSB<1/4 WCI  26
GALESBURG*     FOG       33  33 100 SE9G16    29.99S VSB 3/4 WCI  25
MACOMB*        CLOUDY    34  34 100 S12       30.03R FOG     WCI  25
JACKSONVILLE*  CLOUDY    36  34  92 S10       30.05R WCI  28
PITTSFIELD*    FOG       35  35 100 S7        30.04R VSB<1/4 WCI  29
$$

ILZ028>032-037-038-041>044-048-051>054-059>061-051700-
CENTRAL ILLINOIS

CITY           SKY/WX    TMP DP  RH WIND       PRES   REMARKS
PONTIAC        CLOUDY    32  32 100 S14       30.06S FOG     WCI  22
BLOOMINGTON    FOG       33  32  96 S12       30.05S VSB 1   WCI  24
DECATUR        CLOUDY    35  32  88 S10       30.07S WCI  27
PEORIA         CLOUDY    35  34  96 S9        30.04S WCI  28
LACON*         CLOUDY    33  32  99 S6        30.04R FOG     WCI  27
LINCOLN*       CLOUDY    35  35  99 SE7       30.06S FOG     WCI  29
SPRINGFIELD    CLOUDY    38  34  85 S12       30.05F WCI  30
TAYLORVILLE    CLOUDY    36  34  93 SE7       30.08R WCI  30
$$

ILZ033-039-045-046-055>057-062-063-051700-
EAST-CENTRAL ILLINOIS

CITY           SKY/WX    TMP DP  RH WIND       PRES   REMARKS
CHAMPAIGN      CLOUDY    34  31  88 S10       30.08R WCI  26
RANTOUL*       CLOUDY    35  33  92 S12       30.08R WCI  26
MATTOON        CLOUDY    35  31  85 S10       30.09R WCI  27
PARIS*         CLOUDY    35  33  91 S8        30.11R WCI  28
$$

ILZ079-100>102-051700-
SOUTHWEST ILLINOIS

CITY           SKY/WX    TMP DP  RH WIND       PRES   REMARKS
ALTON          CLOUDY    37  34  87 S7        30.08R WCI  32
BELLEVILLE     CLOUDY    39  37  92 SE7       30.06R WCI  34
CAHOKIA*       CLOUDY    41  35  79 SE7       30.07R
SPARTA*        PTSUNNY   39  35  85 E8        30.06F WCI  33
$$

ILZ064>066-069>071-074>076-080>082-084>086-088>090-092>094-051700-
SOUTH-CENTRAL ILLINOIS

CITY           SKY/WX    TMP DP  RH WIND       PRES   REMARKS
CARBONDALE     NOT AVBL
CAIRO*         CLOUDY    40  36  85 E13       30.07S
EFFINGHAM*     CLOUDY    36  35  95 E8        30.12R WCI  30
MARION         CLOUDY    39  37  93 E12       30.07F WCI  32
CENTRALIA*     CLOUDY    38  34  85 SE6       30.08S FOG     WCI  34
SALEM*         CLOUDY    38  33  82 SE6       30.10R WCI  34
METROPOLIS*    CLOUDY    41  36  80 E9        30.08S
$$

ILZ067-068-072-073-078-083-087-091-051700-
SOUTHEAST ILLINOIS

CITY           SKY/WX    TMP DP  RH WIND       PRES   REMARKS
FLORA*         CLOUDY    38  34  87 E7        30.12R WCI  32
FAIRFIELD*     CLOUDY    38  34  85 NE5       30.10R WCI  34
HARRISBURG*    CLOUDY    38  35  89 E10       30.09F WCI  31
ROBINSON*      CLOUDY    36  32  87 SE6       30.13R WCI  31
CARMI*         CLOUDY    38  35  89 E7        30.11S WCI  32
$$

ABBREVIATIONS USED IN REMARKS
   TC - TEMPERATURE IN CELSIUS
  WCI - WIND CHILL INDEX
   HX - HEAT INDEX
  VSB - VISIBILITY
$$




USA.gov is the U.S. government's official web portal to all federal, state and local government web resources and services.